This is the latest recevied weather packets stored in our database for station/object DB0RES-5. If no packets are shown the sender has not sent any weather packets the latest 10 day(s).
| Time | Temp. | Humidity | Pressure | Rain* | Wind** | Luminosity | Snow |
|---|---|---|---|---|---|---|---|
| 1778233533 | 13.33° C | 72% | 1020.2 hPa | 0 mm | - | - | - |
| 1778232930 | 12.78° C | 74% | 1020.3 hPa | 0 mm | - | - | - |
| 1778232328 | 12.78° C | 74% | 1020.2 hPa | 0 mm | - | - | - |
| 1778231725 | 12.78° C | 76% | 1020.4 hPa | 0 mm | - | - | - |
| 1778231123 | 11.67° C | 79% | 1020.4 hPa | 0 mm | - | - | - |
| 1778230520 | 11.11° C | 81% | 1020.4 hPa | 0 mm | - | - | - |
| 1778229918 | 10.56° C | 83% | 1020.5 hPa | 0 mm | - | - | - |
| 1778229315 | 10° C | 84% | 1020.4 hPa | 0 mm | - | - | - |
| 1778228773 | 9.44° C | 88% | 1020.5 hPa | 0 mm | - | - | - |
| 1778228170 | 8.89° C | 90% | 1020.5 hPa | 0 mm | - | - | - |
| 1778227568 | 8.33° C | 91% | 1020.4 hPa | 0 mm | - | - | - |
| 1778226965 | 7.78° C | 92% | 1020.5 hPa | 0 mm | - | - | - |
| 1778226362 | 7.78° C | 93% | 1020.4 hPa | 0 mm | - | - | - |
| 1778225760 | 7.78° C | 93% | 1020.5 hPa | 0 mm | - | - | - |
| 1778225157 | 7.78° C | 94% | 1020.3 hPa | 0 mm | - | - | - |
| 1778224555 | 7.22° C | 94% | 1020.4 hPa | 0 mm | - | - | - |
| 1778223952 | 6.67° C | 94% | 1020.3 hPa | 0 mm | - | - | - |
| 1778223349 | 7.22° C | 94% | 1020.2 hPa | 0 mm | - | - | - |
| 1778222747 | 7.22° C | 94% | 1020.2 hPa | 0 mm | - | - | - |
| 1778222144 | 7.22° C | 94% | 1020.1 hPa | 0 mm | - | - | - |
| 1778221542 | 6.67° C | 94% | 1020 hPa | 0 mm | - | - | - |
| 1778220939 | 7.22° C | 94% | 1019.9 hPa | 0 mm | - | - | - |
| 1778220337 | 6.67° C | 94% | 1019.6 hPa | 0 mm | - | - | - |
| 1778219734 | 6.67° C | 94% | 1019.7 hPa | 0 mm | - | - | - |
| 1778219132 | 6.67° C | 94% | 1019.6 hPa | 0 mm | - | - | - |
* Rain latest hour (hover to see other rain measurements)
** Current wind speed in m/s (hover to see current wind gust speed)